This is the latest recevied weather packets stored in our database for station/object KB4MLW-13. If no packets are shown the sender has not sent any weather packets the latest 10 day(s).
| Time | Temp. | Humidity | Pressure | Rain* | Wind** | Luminosity | Snow |
|---|---|---|---|---|---|---|---|
| 1788214588 | 33.33° C | 61% | 1000.6 hPa | 0 mm | - | - | - |
| 1788214528 | 33.33° C | 61% | 1000.9 hPa | 0 mm | - | - | - |
| 1788214439 | 33.33° C | 60% | 1000.9 hPa | 0 mm | - | - | - |
| 1788214378 | 33.33° C | 59% | 1000.7 hPa | 0 mm | - | - | - |
| 1788214319 | 33.33° C | 60% | 1000.8 hPa | 0 mm | - | - | - |
| 1788214258 | 33.33° C | 59% | 1000.8 hPa | 0 mm | - | - | - |
| 1788214168 | 33.33° C | 60% | 1000.8 hPa | 0 mm | - | - | - |
| 1788214109 | 33.33° C | 59% | 1001 hPa | 0 mm | - | - | - |
| 1788214049 | 33.33° C | 59% | 1000.8 hPa | 0 mm | - | - | - |
| 1788213958 | 33.33° C | 60% | 1000.8 hPa | 0 mm | - | - | - |
| 1788213898 | 33.33° C | 60% | 1000.7 hPa | 0 mm | - | - | - |
| 1788213838 | 33.33° C | 63% | 1000.9 hPa | 0 mm | - | - | - |
| 1788213749 | 33.33° C | 59% | 1000.9 hPa | 0 mm | - | - | - |
| 1788213688 | 33.89° C | 59% | 1000.6 hPa | 0 mm | - | - | - |
| 1788213628 | 33.89° C | 59% | 1001.1 hPa | 0 mm | - | - | - |
| 1788213538 | 33.33° C | 58% | 1000.9 hPa | 0 mm | - | - | - |
| 1788213448 | 33.33° C | 58% | 1000.8 hPa | 0 mm | - | - | - |
| 1788213390 | 33.33° C | 60% | 1000.8 hPa | 0 mm | - | - | - |
| 1788213328 | 33.33° C | 59% | 1000.8 hPa | 0 mm | - | - | - |
| 1788213239 | 33.33° C | 60% | 1000.9 hPa | 0 mm | - | - | - |
| 1788213178 | 33.33° C | 61% | 1001.1 hPa | 0 mm | - | - | - |
| 1788213118 | 33.33° C | 60% | 1001 hPa | 0 mm | - | - | - |
| 1788213060 | 33.33° C | 59% | 1000.7 hPa | 0 mm | - | - | - |
| 1788212998 | 33.89° C | 59% | 1001 hPa | 0 mm | - | - | - |
| 1788212938 | 33.89° C | 59% | 1000.9 hPa | 0 mm | - | - | - |
* Rain latest hour (hover to see other rain measurements)
** Current wind speed in m/s (hover to see current wind gust speed)